This demonstration page uses our WeatherBlox Daily Observations layout. Learn more.

Left ArrowRight Arrow

39.92423, -83.80882

Hourly Observations for June 10, 2015

Temp ( °F °C ) Dew Point ( °F °C ) Humidity (%) Winds ( mph kmh ) Pressure ( in mb ) Visibility ( mi km ) Precip ( " mm )
12:56 am 00:56 Clear with Mist and Fog 60 15.5 60 15.5 100 100 Calm 29.89 1012 6 9.65604 0 0
1:56 am 01:56 Clear with Mist and Fog 59 15 59 15 100 100 Calm 29.89 1012 6 9.65604 0 0
2:56 am 02:56 Clear 61 16.1 60 15.5 96 96 S 3 6 29.88 1012 7 11.26538 0 0
3:56 am 03:56 Clear 63 17.2 60 15.5 90 90 S 6 9 29.87 1012 7 11.26538 0 0
4:56 am 04:56 Clear 64 17.7 60 15.5 87 87 S 6 9 29.87 1011 7 11.26538 0 0
5:56 am 05:56 Clear 65 18.3 60 15.5 84 84 SSW 6 9 29.87 1011 7 11.26538 0 0
6:56 am 06:56 Sunny with Mist and Fog 65 18.3 61 16.1 87 87 SSW 7 11 29.87 1012 6 9.65604 0 0
7:56 am 07:56 Hazy 68 20 62 16.6 81 81 SSW 10 17 29.88 1012 6 9.65604 0 0
8:56 am 08:56 Hazy 71 21.6 63 17.2 76 76 SW 9 15 29.88 1012 6 9.65604 0 0
9:56 am 09:56 Hazy 76 24.4 64 17.7 66 66 SW 9 15 29.89 1012 6 9.65604 0 0
10:56 am 10:56 Sunny 82 27.7 63 17.2 53 53 SW 14 22 29.88 1012 7 11.26538 0 0
11:56 am 11:56 Sunny 85 29.4 64 17.7 49 49 SW 15 24 29.88 1012 7 11.26538 0 0
12:56 pm 12:56 Sunny 87 30.5 65 18.3 48 48 SW 16 26 29.88 1012 8 12.87472 0 0
1:56 pm 13:56 Sunny 89 31.6 64 17.7 43 43 WSW 14 22 29.86 1011 8 12.87472 0 0
2:56 pm 14:56 Sunny 90 32.2 62 16.6 39 39 SW 16 26 29.84 1010 9 14.48406 0 0
3:56 pm 15:56 Sunny 89 31.6 61 16.1 39 39 SW 16 26 29.83 1010 9 14.48406 0 0
4:56 pm 16:56 Sunny 91 32.7 61 16.1 37 37 SW 14 22 29.82 1010 9 14.48406 0 0
5:56 pm 17:56 Sunny 91 32.7 61 16.1 37 37 SSW 13 20 29.82 1010 8 12.87472 0 0
6:56 pm 18:56 Sunny 90 32.2 62 16.6 39 39 SW 10 17 29.82 1010 9 14.48406 0 0
7:56 pm 19:56 Sunny 86 30 62 16.6 44 44 SW 8 13 29.82 1010 8 12.87472 0 0
8:56 pm 20:56 Sunny 82 27.7 63 17.2 53 53 SSW 9 15 29.82 1010 8 12.87472 0 0
9:56 pm 21:56 Clear 78 25.5 63 17.2 60 60 SSW 7 11 29.82 1010 9 14.48406 0 0
10:56 pm 22:56 Clear 77 25 62 16.6 60 60 SSW 10 17 29.85 1011 8 12.87472 0 0
11:56 pm 23:56 Clear 76 24.4 62 16.6 62 62 SSW 8 13 29.88 1012 9 14.48406 0 0

Powered by AerisWeather